2023-10-12T00:00:00,pth,2.40
2023-10-12T00:01:00,pth,1.20
2023-10-12T00:03:00,pth,3.60
2023-10-12T00:05:00,pth,2.40
2023-10-12T00:07:00,pth,3.60
2023-10-12T00:08:00,pth,1.20
2023-10-12T00:10:00,pth,3.60
2023-10-12T00:11:00,pth,1.20
2023-10-12T00:13:00,pth,2.40
2023-10-12T00:15:00,pth,2.40
2023-10-12T00:16:00,pth,2.40
2023-10-12T00:18:00,pth,2.40
2023-10-12T00:20:00,pth,2.40
2023-10-12T00:22:00,pth,2.40
2023-10-12T00:23:00,pth,2.40
2023-10-12T00:25:00,pth,2.40
2023-10-12T00:26:00,pth,2.40
2023-10-12T00:28:00,pth,4.80
2023-10-12T00:29:00,pth,2.40
2023-10-12T00:31:00,pth,4.80
2023-10-12T00:32:00,pth,2.40
2023-10-12T00:34:00,pth,2.40
2023-10-12T00:35:00,pth,1.20
2023-10-12T00:37:00,pth,3.60
2023-10-12T00:38:00,pth,1.20
2023-10-12T00:40:00,pth,2.40
2023-10-12T00:42:00,pth,2.40
2023-10-12T00:44:00,pth,3.60
2023-10-12T00:45:00,pth,1.20
2023-10-12T00:47:00,pth,2.40
2023-10-12T00:48:00,pth,2.40
2023-10-12T00:50:00,pth,2.40
2023-10-12T00:52:00,pth,4.80
2023-10-12T00:53:00,pth,2.40
2023-10-12T00:55:00,pth,2.40
2023-10-12T00:57:00,pth,3.60
2023-10-12T00:59:00,pth,3.60
2023-10-12T01:00:00,pth,1.20
2023-10-12T01:01:00,pth,1.20
2023-10-12T01:02:00,pth,1.20
2023-10-12T01:04:00,pth,3.60
2023-10-12T01:05:00,pth,2.40
2023-10-12T01:07:00,pth,8.40
2023-10-12T01:09:00,pth,4.80
2023-10-12T01:10:00,pth,1.20
2023-10-12T01:11:00,pth,2.40
2023-10-12T01:13:00,pth,2.40
2023-10-12T01:15:00,pth,2.40
2023-10-12T01:17:00,pth,2.40
2023-10-12T01:19:00,pth,2.40
2023-10-12T01:20:00,pth,1.20
2023-10-12T01:21:00,pth,1.20
2023-10-12T01:23:00,pth,2.40
2023-10-12T01:25:00,pth,2.40
2023-10-12T01:27:00,pth,2.40
2023-10-12T01:28:00,pth,1.20
2023-10-12T01:30:00,pth,3.60
2023-10-12T01:32:00,pth,2.40
2023-10-12T01:34:00,pth,2.40
2023-10-12T01:36:00,pth,2.40
2023-10-12T01:38:00,pth,2.40
2023-10-12T01:40:00,pth,3.60
2023-10-12T01:42:00,pth,4.80
2023-10-12T01:44:00,pth,4.80
2023-10-12T01:46:00,pth,3.60
2023-10-12T01:48:00,pth,2.40
2023-10-12T01:50:00,pth,2.40
2023-10-12T01:52:00,pth,2.40
2023-10-12T01:54:00,pth,2.40
2023-10-12T01:55:00,pth,2.40
2023-10-12T01:57:00,pth,1.20
2023-10-12T01:59:00,pth,2.40
2023-10-12T02:01:00,pth,2.40
2023-10-12T02:03:00,pth,2.40
2023-10-12T02:05:00,pth,2.40
2023-10-12T02:06:00,pth,1.20
2023-10-12T02:07:00,pth,1.20
2023-10-12T02:08:00,pth,1.20
2023-10-12T02:10:00,pth,2.40
2023-10-12T02:12:00,pth,1.20
2023-10-12T02:13:00,pth,1.20
2023-10-12T02:15:00,pth,2.40
2023-10-12T02:17:00,pth,3.60
2023-10-12T02:19:00,pth,4.80
2023-10-12T02:20:00,pth,1.20
2023-10-12T02:22:00,pth,4.80
2023-10-12T02:23:00,pth,2.40
2023-10-12T02:25:00,pth,2.40
2023-10-12T02:27:00,pth,2.40
2023-10-12T02:29:00,pth,1.20
2023-10-12T02:31:00,pth,2.40
2023-10-12T02:32:00,pth,1.20
2023-10-12T02:34:00,pth,3.60
2023-10-12T02:36:00,pth,2.40
2023-10-12T02:37:00,pth,1.20
2023-10-12T02:39:00,pth,2.40
2023-10-12T02:40:00,pth,1.20
2023-10-12T02:41:00,pth,1.20
2023-10-12T02:42:00,pth,1.20
2023-10-12T02:44:00,pth,2.40
2023-10-12T02:45:00,pth,1.20
2023-10-12T02:47:00,pth,2.40
2023-10-12T02:49:00,pth,1.20
2023-10-12T02:51:00,pth,2.40
2023-10-12T02:52:00,pth,1.20
2023-10-12T02:54:00,pth,3.60
2023-10-12T02:55:00,pth,1.20
2023-10-12T02:57:00,pth,4.80
2023-10-12T02:58:00,pth,2.40
2023-10-12T02:59:00,pth,1.20
2023-10-12T03:01:00,pth,3.60
2023-10-12T03:03:00,pth,1.20
2023-10-12T03:05:00,pth,2.40
2023-10-12T03:06:00,pth,1.20
2023-10-12T03:07:00,pth,1.20
2023-10-12T03:08:00,pth,1.20
2023-10-12T03:10:00,pth,1.20
2023-10-12T03:12:00,pth,2.40
2023-10-12T03:14:00,pth,2.40
2023-10-12T03:15:00,pth,1.20
2023-10-12T03:17:00,pth,2.40
2023-10-12T03:18:00,pth,1.20
2023-10-12T03:19:00,pth,1.20
2023-10-12T03:20:00,pth,1.20
2023-10-12T03:22:00,pth,2.40
2023-10-12T03:25:00,pth,2.40
2023-10-12T03:26:00,pth,1.20
2023-10-12T03:27:00,pth,1.20
2023-10-12T03:28:00,pth,1.20
2023-10-12T03:30:00,pth,3.60
2023-10-12T03:31:00,pth,1.20
2023-10-12T03:33:00,pth,4.80
2023-10-12T03:34:00,pth,1.20
2023-10-12T03:35:00,pth,2.40
2023-10-12T03:37:00,pth,2.40
2023-10-12T03:39:00,pth,3.60
2023-10-12T03:40:00,pth,1.20
2023-10-12T03:42:00,pth,2.40
2023-10-12T03:43:00,pth,1.20
2023-10-12T03:45:00,pth,1.20
2023-10-12T03:46:00,pth,1.20
2023-10-12T03:48:00,pth,2.40
2023-10-12T03:50:00,pth,2.40
2023-10-12T03:52:00,pth,2.40
2023-10-12T03:54:00,pth,2.40
2023-10-12T03:56:00,pth,2.40
2023-10-12T03:58:00,pth,1.20
2023-10-12T03:59:00,pth,1.20
2023-10-12T04:00:00,pth,1.20
2023-10-12T04:02:00,pth,2.40
2023-10-12T04:04:00,pth,2.40
2023-10-12T04:06:00,pth,4.80
2023-10-12T04:08:00,pth,6.00
2023-10-12T04:10:00,pth,4.80
2023-10-12T04:12:00,pth,3.60
2023-10-12T04:13:00,pth,1.20
2023-10-12T04:14:00,pth,1.20
2023-10-12T04:15:00,pth,2.40
2023-10-12T04:17:00,pth,1.20
2023-10-12T04:18:00,pth,1.20
2023-10-12T04:19:00,pth,1.20
2023-10-12T04:21:00,pth,2.40
2023-10-12T04:23:00,pth,2.40
2023-10-12T04:24:00,pth,1.20
2023-10-12T04:26:00,pth,2.40
2023-10-12T04:28:00,pth,2.40
2023-10-12T04:30:00,pth,2.40
2023-10-12T04:32:00,pth,2.40
2023-10-12T04:33:00,pth,1.20
2023-10-12T04:34:00,pth,1.20
2023-10-12T04:36:00,pth,2.40
2023-10-12T04:37:00,pth,1.20
2023-10-12T04:38:00,pth,2.40
2023-10-12T04:40:00,pth,2.40
2023-10-12T04:41:00,pth,1.20
2023-10-12T04:43:00,pth,3.60
2023-10-12T04:44:00,pth,2.40
2023-10-12T04:46:00,pth,4.80
2023-10-12T04:48:00,pth,3.60
2023-10-12T04:49:00,pth,1.20
2023-10-12T04:51:00,pth,2.40
2023-10-12T04:53:00,pth,2.40
2023-10-12T04:54:00,pth,1.20
2023-10-12T04:55:00,pth,1.20
2023-10-12T04:57:00,pth,2.40
2023-10-12T04:58:00,pth,1.20
2023-10-12T05:00:00,pth,2.40
2023-10-12T05:01:00,pth,1.20
2023-10-12T05:03:00,pth,2.40
2023-10-12T05:05:00,pth,2.40
2023-10-12T05:06:00,pth,1.20
2023-10-12T05:08:00,pth,1.20
2023-10-12T05:10:00,pth,2.40
2023-10-12T05:12:00,pth,2.40
2023-10-12T05:13:00,pth,1.20
2023-10-12T05:15:00,pth,1.20
2023-10-12T05:16:00,pth,1.20
2023-10-12T05:18:00,pth,4.80
2023-10-12T05:20:00,pth,3.60
2023-10-12T05:22:00,pth,3.60
2023-10-12T05:24:00,pth,2.40
2023-10-12T05:26:00,pth,2.40
2023-10-12T05:28:00,pth,2.40
2023-10-12T05:31:00,pth,2.40
2023-10-12T05:32:00,pth,1.20
2023-10-12T05:34:00,pth,2.40
2023-10-12T05:35:00,pth,1.20
2023-10-12T05:37:00,pth,1.20
2023-10-12T05:39:00,pth,2.40
2023-10-12T05:40:00,pth,1.20
2023-10-12T05:42:00,pth,1.20
2023-10-12T05:43:00,pth,1.20
2023-10-12T05:45:00,pth,2.40
2023-10-12T05:46:00,pth,1.20
2023-10-12T05:48:00,pth,2.40
2023-10-12T05:49:00,pth,1.20
2023-10-12T05:52:00,pth,3.60
2023-10-12T05:53:00,pth,2.40
2023-10-12T05:54:00,pth,2.40
2023-10-12T05:56:00,pth,4.80
2023-10-12T05:58:00,pth,3.60
2023-10-12T06:00:00,pth,3.60
2023-10-12T06:02:00,pth,1.20
2023-10-12T06:03:00,pth,1.20
2023-10-12T06:04:00,pth,1.20
2023-10-12T06:05:00,pth,1.20
2023-10-12T06:07:00,pth,2.40
2023-10-12T06:09:00,pth,2.40
2023-10-12T06:11:00,pth,2.40
2023-10-12T06:14:00,pth,2.40
2023-10-12T06:15:00,pth,1.20
2023-10-12T06:16:00,pth,1.20
2023-10-12T06:18:00,pth,2.40
2023-10-12T06:19:00,pth,1.20
2023-10-12T06:21:00,pth,2.40
2023-10-12T06:22:00,pth,1.20
2023-10-12T06:25:00,pth,2.40
2023-10-12T06:27:00,pth,2.40
2023-10-12T06:29:00,pth,2.40
2023-10-12T06:31:00,pth,4.80
2023-10-12T06:33:00,pth,3.60
2023-10-12T06:35:00,pth,3.60
2023-10-12T06:37:00,pth,2.40
2023-10-12T06:38:00,pth,1.20
2023-10-12T06:40:00,pth,2.40
2023-10-12T06:42:00,pth,2.40
2023-10-12T06:44:00,pth,3.60
2023-10-12T06:46:00,pth,2.40
2023-10-12T06:47:00,pth,1.20
2023-10-12T06:48:00,pth,1.20
2023-10-12T06:50:00,pth,2.40
2023-10-12T06:51:00,pth,1.20
2023-10-12T06:53:00,pth,2.40
2023-10-12T06:55:00,pth,3.60
2023-10-12T06:56:00,pth,1.20
2023-10-12T06:58:00,pth,2.40
2023-10-12T06:59:00,pth,1.20
2023-10-12T07:00:00,pth,1.20
2023-10-12T07:02:00,pth,3.60
2023-10-12T07:03:00,pth,1.20
2023-10-12T07:04:00,pth,2.40
2023-10-12T07:06:00,pth,4.80
2023-10-12T07:07:00,pth,2.40
2023-10-12T07:09:00,pth,4.80
2023-10-12T07:11:00,pth,3.60
2023-10-12T07:12:00,pth,1.20
2023-10-12T07:13:00,pth,1.20
2023-10-12T07:15:00,pth,3.60
2023-10-12T07:17:00,pth,2.40
2023-10-12T07:19:00,pth,2.40
2023-10-12T07:22:00,pth,2.40
2023-10-12T07:23:00,pth,1.20
2023-10-12T07:25:00,pth,2.40
2023-10-12T07:27:00,pth,3.60
2023-10-12T07:29:00,pth,2.40
2023-10-12T07:31:00,pth,2.40
2023-10-12T07:32:00,pth,1.20
2023-10-12T07:34:00,pth,2.40
2023-10-12T07:36:00,pth,2.40
2023-10-12T07:38:00,pth,2.40
2023-10-12T07:39:00,pth,1.20
2023-10-12T07:41:00,pth,3.60
2023-10-12T07:43:00,pth,4.80
2023-10-12T07:45:00,pth,4.80
2023-10-12T07:47:00,pth,2.40
2023-10-12T07:48:00,pth,1.20
2023-10-12T07:49:00,pth,1.20
2023-10-12T07:51:00,pth,2.40
2023-10-12T07:53:00,pth,1.20
2023-10-12T07:55:00,pth,2.40
2023-10-12T07:57:00,pth,2.40
2023-10-12T07:59:00,pth,1.20
2023-10-12T08:01:00,pth,2.40
2023-10-12T08:02:00,pth,1.20
2023-10-12T08:04:00,pth,1.20
2023-10-12T08:05:00,pth,1.20
2023-10-12T08:07:00,pth,1.20
2023-10-12T08:08:00,pth,1.20
2023-10-12T08:10:00,pth,1.20
2023-10-12T08:12:00,pth,3.60
2023-10-12T08:14:00,pth,4.80
2023-10-12T08:15:00,pth,2.40
2023-10-12T08:17:00,pth,6.00
2023-10-12T08:18:00,pth,2.40
2023-10-12T08:19:00,pth,2.40
2023-10-12T08:21:00,pth,4.80
2023-10-12T08:22:00,pth,2.40
2023-10-12T08:24:00,pth,2.40
2023-10-12T08:25:00,pth,1.20
2023-10-12T08:27:00,pth,1.20
2023-10-12T08:29:00,pth,2.40
2023-10-12T08:30:00,pth,1.20
2023-10-12T08:32:00,pth,2.40
2023-10-12T08:34:00,pth,2.40
2023-10-12T08:35:00,pth,1.20
2023-10-12T08:37:00,pth,1.20
2023-10-12T08:39:00,pth,2.40
2023-10-12T08:41:00,pth,1.20
2023-10-12T08:42:00,pth,1.20
2023-10-12T08:43:00,pth,1.20
2023-10-12T08:45:00,pth,2.40
2023-10-12T08:47:00,pth,1.20
2023-10-12T08:49:00,pth,2.40
2023-10-12T08:50:00,pth,1.20
2023-10-12T08:51:00,pth,2.40
2023-10-12T08:53:00,pth,3.60
2023-10-12T08:54:00,pth,2.40
2023-10-12T08:56:00,pth,3.60
2023-10-12T08:58:00,pth,4.80
2023-10-12T09:00:00,pth,3.60
2023-10-12T09:01:00,pth,1.20
2023-10-12T09:03:00,pth,1.20
2023-10-12T09:04:00,pth,1.20
2023-10-12T09:06:00,pth,2.40
2023-10-12T09:08:00,pth,1.20
2023-10-12T09:10:00,pth,1.20
2023-10-12T09:12:00,pth,2.40
2023-10-12T09:14:00,pth,1.20
2023-10-12T09:15:00,pth,1.20
2023-10-12T09:17:00,pth,1.20
2023-10-12T09:18:00,pth,1.20
2023-10-12T09:20:00,pth,2.40
2023-10-12T09:22:00,pth,2.40
2023-10-12T09:23:00,pth,1.20
2023-10-12T09:24:00,pth,1.20
2023-10-12T09:25:00,pth,1.20
2023-10-12T09:26:00,pth,1.20
2023-10-12T09:27:00,pth,1.20
2023-10-12T09:28:00,pth,1.20
2023-10-12T09:30:00,pth,3.60
2023-10-12T09:32:00,pth,2.40
2023-10-12T09:34:00,pth,3.60
2023-10-12T09:35:00,pth,2.40
2023-10-12T09:37:00,pth,3.60
2023-10-12T09:39:00,pth,2.40
2023-10-12T09:41:00,pth,2.40
2023-10-12T09:43:00,pth,2.40
2023-10-12T09:45:00,pth,2.40
2023-10-12T09:47:00,pth,1.20
2023-10-12T09:48:00,pth,1.20
2023-10-12T09:49:00,pth,1.20
2023-10-12T09:51:00,pth,2.40
2023-10-12T09:53:00,pth,1.20
2023-10-12T09:55:00,pth,2.40
2023-10-12T09:56:00,pth,1.20
2023-10-12T09:58:00,pth,1.20
2023-10-12T09:59:00,pth,1.20
2023-10-12T10:01:00,pth,2.40
2023-10-12T10:02:00,pth,1.20
2023-10-12T10:04:00,pth,2.40
2023-10-12T10:06:00,pth,1.20
2023-10-12T10:08:00,pth,2.40
2023-10-12T10:10:00,pth,2.40
2023-10-12T10:12:00,pth,3.60
2023-10-12T10:13:00,pth,2.40
2023-10-12T10:15:00,pth,3.60
2023-10-12T10:17:00,pth,4.80
2023-10-12T10:19:00,pth,2.40
2023-10-12T10:21:00,pth,2.40
2023-10-12T10:22:00,pth,1.20
2023-10-12T10:23:00,pth,1.20
2023-10-12T10:24:00,pth,1.20
2023-10-12T10:26:00,pth,2.40
2023-10-12T10:28:00,pth,2.40
2023-10-12T10:29:00,pth,2.40
2023-10-12T10:31:00,pth,1.20
2023-10-12T10:32:00,pth,1.20
2023-10-12T10:34:00,pth,3.60
2023-10-12T10:35:00,pth,1.20
2023-10-12T10:36:00,pth,1.20
2023-10-12T10:37:00,pth,1.20
2023-10-12T10:39:00,pth,2.40
2023-10-12T10:41:00,pth,2.40
2023-10-12T10:42:00,pth,1.20
2023-10-12T10:44:00,pth,2.40
2023-10-12T10:46:00,pth,2.40
2023-10-12T10:47:00,pth,1.20
2023-10-12T10:48:00,pth,1.20
2023-10-12T10:50:00,pth,2.40
2023-10-12T10:52:00,pth,2.40
2023-10-12T10:53:00,pth,1.20
2023-10-12T10:54:00,pth,1.20
2023-10-12T10:56:00,pth,4.80
2023-10-12T10:58:00,pth,4.80
2023-10-12T11:00:00,pth,3.60
2023-10-12T11:01:00,pth,1.20
2023-10-12T11:03:00,pth,2.40
2023-10-12T11:04:00,pth,1.20
2023-10-12T11:06:00,pth,2.40
2023-10-12T11:08:00,pth,2.40
2023-10-12T11:10:00,pth,3.60
2023-10-12T11:12:00,pth,3.60
2023-10-12T11:13:00,pth,1.20
2023-10-12T11:15:00,pth,2.40
2023-10-12T11:17:00,pth,2.40
2023-10-12T11:19:00,pth,1.20
2023-10-12T11:20:00,pth,2.40
2023-10-12T11:22:00,pth,2.40
2023-10-12T11:24:00,pth,3.60
2023-10-12T11:26:00,pth,2.40
2023-10-12T11:27:00,pth,1.20
2023-10-12T11:29:00,pth,2.40
2023-10-12T11:31:00,pth,2.40
2023-10-12T11:32:00,pth,1.20
2023-10-12T11:33:00,pth,1.20
2023-10-12T11:35:00,pth,4.80
2023-10-12T11:36:00,pth,1.20
2023-10-12T11:37:00,pth,2.40
2023-10-12T11:39:00,pth,2.40
2023-10-12T11:40:00,pth,1.20
2023-10-12T11:41:00,pth,1.20
2023-10-12T11:43:00,pth,3.60
2023-10-12T11:44:00,pth,1.20
2023-10-12T11:45:00,pth,2.40
2023-10-12T11:47:00,pth,4.80
2023-10-12T11:48:00,pth,2.40
2023-10-12T11:49:00,pth,1.20
2023-10-12T11:51:00,pth,2.40
2023-10-12T11:52:00,pth,1.20
2023-10-12T11:54:00,pth,2.40
2023-10-12T11:56:00,pth,2.40
2023-10-12T11:57:00,pth,1.20
2023-10-12T11:59:00,pth,3.60
2023-10-12T12:01:00,pth,2.40
2023-10-12T12:03:00,pth,2.40
2023-10-12T12:05:00,pth,2.40
2023-10-12T12:07:00,pth,3.60
2023-10-12T12:09:00,pth,2.40
2023-10-12T12:11:00,pth,2.40
2023-10-12T12:13:00,pth,2.40
2023-10-12T12:15:00,pth,2.40
2023-10-12T12:16:00,pth,1.20
2023-10-12T12:18:00,pth,1.20
2023-10-12T12:20:00,pth,2.40
2023-10-12T12:21:00,pth,1.20
2023-10-12T12:23:00,pth,2.40
2023-10-12T12:24:00,pth,1.20
2023-10-12T12:26:00,pth,2.40
2023-10-12T12:27:00,pth,1.20
2023-10-12T12:28:00,pth,1.20
2023-10-12T12:30:00,pth,1.20
2023-10-12T12:31:00,pth,2.40
2023-10-12T12:33:00,pth,2.40
2023-10-12T12:35:00,pth,2.40
2023-10-12T12:36:00,pth,1.20
2023-10-12T12:38:00,pth,2.40
2023-10-12T12:39:00,pth,1.20
2023-10-12T12:41:00,pth,2.40
2023-10-12T12:43:00,pth,3.60
2023-10-12T12:45:00,pth,4.80
2023-10-12T12:46:00,pth,2.40
2023-10-12T12:47:00,pth,2.40
2023-10-12T12:49:00,pth,2.40
2023-10-12T12:51:00,pth,2.40
2023-10-12T12:53:00,pth,2.40
2023-10-12T12:54:00,pth,1.20
2023-10-12T12:56:00,pth,3.60
2023-10-12T12:58:00,pth,1.20
2023-10-12T12:59:00,pth,1.20
2023-10-12T13:01:00,pth,1.20
2023-10-12T13:03:00,pth,2.40
2023-10-12T13:05:00,pth,2.40
2023-10-12T13:06:00,pth,1.20
2023-10-12T13:08:00,pth,2.40
2023-10-12T13:09:00,pth,1.20
2023-10-12T13:10:00,pth,1.20
2023-10-12T13:12:00,pth,1.20
2023-10-12T13:13:00,pth,6.00
2023-10-12T13:14:00,pth,7.20
2023-10-12T13:16:00,pth,13.20
2023-10-12T13:18:00,pth,13.20
2023-10-12T13:20:00,pth,13.20
2023-10-12T13:22:00,pth,13.20
2023-10-12T13:23:00,pth,6.00
2023-10-12T13:25:00,pth,13.20
2023-10-12T13:27:00,pth,13.20
2023-10-12T13:29:00,pth,13.20
2023-10-12T13:31:00,pth,13.20
2023-10-12T13:32:00,pth,7.20
2023-10-12T13:34:00,pth,13.20
2023-10-12T13:36:00,pth,13.20
2023-10-12T13:38:00,pth,9.60
2023-10-12T13:40:00,pth,9.60
2023-10-12T13:41:00,pth,7.20
2023-10-12T13:43:00,pth,9.60
2023-10-12T13:45:00,pth,4.80
2023-10-12T13:46:00,pth,6.00
2023-10-12T13:48:00,pth,8.40
2023-10-12T13:49:00,pth,1.20
2023-10-12T13:51:00,pth,10.80
2023-10-12T13:53:00,pth,8.40
2023-10-12T13:54:00,pth,1.20
2023-10-12T13:56:00,pth,10.80
2023-10-12T13:57:00,pth,6.00
2023-10-12T13:59:00,pth,3.60
2023-10-12T14:01:00,pth,10.80
2023-10-12T14:03:00,pth,7.20
2023-10-12T14:04:00,pth,1.20
2023-10-12T14:06:00,pth,12.00
2023-10-12T14:07:00,pth,4.80
2023-10-12T14:09:00,pth,3.60
2023-10-12T14:11:00,pth,3.60
2023-10-12T14:13:00,pth,2.40
2023-10-12T14:14:00,pth,2.40
2023-10-12T14:16:00,pth,2.40
2023-10-12T14:18:00,pth,3.60
2023-10-12T14:20:00,pth,2.40
2023-10-12T14:22:00,pth,8.40
2023-10-12T14:23:00,pth,6.00
2023-10-12T14:25:00,pth,14.40
2023-10-12T14:26:00,pth,6.00
2023-10-12T14:28:00,pth,14.40
2023-10-12T14:30:00,pth,13.20
2023-10-12T14:31:00,pth,6.00
2023-10-12T14:32:00,pth,7.20
2023-10-12T14:34:00,pth,12.00
2023-10-12T14:36:00,pth,13.20
2023-10-12T14:37:00,pth,7.20
2023-10-12T14:39:00,pth,15.60
2023-10-12T14:41:00,pth,14.40
2023-10-12T14:43:00,pth,14.40
2023-10-12T14:45:00,pth,13.20
2023-10-12T14:46:00,pth,7.20
2023-10-12T14:47:00,pth,6.00
2023-10-12T14:49:00,pth,14.40
2023-10-12T14:50:00,pth,7.20
2023-10-12T14:52:00,pth,13.20
2023-10-12T14:54:00,pth,13.20
2023-10-12T14:55:00,pth,6.00
2023-10-12T14:56:00,pth,6.00
2023-10-12T14:58:00,pth,8.40
2023-10-12T15:00:00,pth,12.00
2023-10-12T15:02:00,pth,7.20
2023-10-12T15:04:00,pth,12.00
2023-10-12T15:06:00,pth,6.00
2023-10-12T15:08:00,pth,10.80
2023-10-12T15:09:00,pth,1.20
2023-10-12T15:11:00,pth,10.80
2023-10-12T15:13:00,pth,7.20
2023-10-12T15:14:00,pth,6.00
2023-10-12T15:16:00,pth,7.20
2023-10-12T15:17:00,pth,6.00
2023-10-12T15:19:00,pth,3.60
2023-10-12T15:20:00,pth,1.20
2023-10-12T15:22:00,pth,2.40
2023-10-12T15:24:00,pth,2.40
2023-10-12T15:26:00,pth,1.20
2023-10-12T15:28:00,pth,2.40
2023-10-12T15:29:00,pth,1.20
2023-10-12T15:30:00,pth,3.60
2023-10-12T15:31:00,pth,6.00
2023-10-12T15:33:00,pth,13.20
2023-10-12T15:35:00,pth,14.40
2023-10-12T15:36:00,pth,6.00
2023-10-12T15:38:00,pth,14.40
2023-10-12T15:40:00,pth,13.20
2023-10-12T15:42:00,pth,14.40
2023-10-12T15:43:00,pth,6.00
2023-10-12T15:45:00,pth,14.40
2023-10-12T15:47:00,pth,14.40
2023-10-12T15:48:00,pth,7.20
2023-10-12T15:50:00,pth,13.20
2023-10-12T15:51:00,pth,7.20
2023-10-12T15:53:00,pth,13.20
2023-10-12T15:55:00,pth,9.60
2023-10-12T15:56:00,pth,7.20
2023-10-12T15:58:00,pth,12.00
2023-10-12T16:00:00,pth,9.60
2023-10-12T16:02:00,pth,7.20
2023-10-12T16:04:00,pth,9.60
2023-10-12T16:06:00,pth,9.60
2023-10-12T16:07:00,pth,2.40
2023-10-12T16:09:00,pth,9.60
2023-10-12T16:11:00,pth,7.20
2023-10-12T16:12:00,pth,6.00
2023-10-12T16:14:00,pth,7.20
2023-10-12T16:15:00,pth,6.00
2023-10-12T16:17:00,pth,7.20
2023-10-12T16:18:00,pth,6.00
2023-10-12T16:20:00,pth,6.00
2023-10-12T16:22:00,pth,9.60
2023-10-12T16:23:00,pth,3.60
2023-10-12T16:25:00,pth,8.40
2023-10-12T16:27:00,pth,9.60
2023-10-12T16:29:00,pth,3.60
2023-10-12T16:30:00,pth,1.20
2023-10-12T16:33:00,pth,2.40
2023-10-12T16:34:00,pth,1.20
2023-10-12T16:36:00,pth,2.40
2023-10-12T16:38:00,pth,2.40
2023-10-12T16:40:00,pth,2.40
2023-10-12T16:41:00,pth,1.20
2023-10-12T16:43:00,pth,2.40
2023-10-12T16:44:00,pth,1.20
2023-10-12T16:46:00,pth,3.60
2023-10-12T16:48:00,pth,2.40
2023-10-12T16:49:00,pth,1.20
2023-10-12T16:51:00,pth,2.40
2023-10-12T16:53:00,pth,4.80
2023-10-12T16:54:00,pth,2.40
2023-10-12T16:56:00,pth,4.80
2023-10-12T16:57:00,pth,1.20
2023-10-12T16:59:00,pth,4.80
2023-10-12T17:00:00,pth,1.20
2023-10-12T17:02:00,pth,2.40
2023-10-12T17:04:00,pth,2.40
2023-10-12T17:05:00,pth,1.20
2023-10-12T17:06:00,pth,1.20
2023-10-12T17:08:00,pth,2.40
2023-10-12T17:10:00,pth,1.20
2023-10-12T17:11:00,pth,1.20
2023-10-12T17:12:00,pth,1.20
2023-10-12T17:14:00,pth,2.40
2023-10-12T17:16:00,pth,2.40
2023-10-12T17:18:00,pth,2.40
2023-10-12T17:20:00,pth,2.40
2023-10-12T17:22:00,pth,2.40
2023-10-12T17:23:00,pth,1.20
2023-10-12T17:25:00,pth,2.40
2023-10-12T17:27:00,pth,2.40
2023-10-12T17:28:00,pth,1.20
2023-10-12T17:30:00,pth,2.40
2023-10-12T17:31:00,pth,1.20
2023-10-12T17:33:00,pth,2.40
2023-10-12T17:34:00,pth,1.20
2023-10-12T17:36:00,pth,2.40
2023-10-12T17:38:00,pth,2.40
2023-10-12T17:40:00,pth,10.80
2023-10-12T17:42:00,pth,13.20
2023-10-12T17:44:00,pth,14.40
2023-10-12T17:46:00,pth,14.40
2023-10-12T17:48:00,pth,13.20
2023-10-12T17:50:00,pth,14.40
2023-10-12T17:51:00,pth,7.20
2023-10-12T17:52:00,pth,7.20
2023-10-12T17:54:00,pth,14.40
2023-10-12T17:56:00,pth,13.20
2023-10-12T17:57:00,pth,7.20
2023-10-12T17:59:00,pth,14.40
2023-10-12T18:01:00,pth,13.20
2023-10-12T18:02:00,pth,6.00
2023-10-12T18:04:00,pth,13.20
2023-10-12T18:06:00,pth,14.40
2023-10-12T18:08:00,pth,13.20
2023-10-12T18:09:00,pth,7.20
2023-10-12T18:11:00,pth,13.20
2023-10-12T18:12:00,pth,7.20
2023-10-12T18:14:00,pth,13.20
2023-10-12T18:16:00,pth,14.40
2023-10-12T18:18:00,pth,13.20
2023-10-12T18:20:00,pth,14.40
2023-10-12T18:22:00,pth,13.20
2023-10-12T18:23:00,pth,7.20
2023-10-12T18:24:00,pth,7.20
2023-10-12T18:26:00,pth,15.60
2023-10-12T18:28:00,pth,14.40
2023-10-12T18:30:00,pth,13.20
2023-10-12T18:32:00,pth,13.20
2023-10-12T18:34:00,pth,13.20
2023-10-12T18:36:00,pth,15.60
2023-10-12T18:37:00,pth,8.40
2023-10-12T18:39:00,pth,15.60
2023-10-12T18:41:00,pth,10.80
2023-10-12T18:42:00,pth,2.40
2023-10-12T18:44:00,pth,2.40
2023-10-12T18:46:00,pth,3.60
2023-10-12T18:47:00,pth,1.20
2023-10-12T18:48:00,pth,1.20
2023-10-12T18:50:00,pth,14.40
2023-10-12T18:51:00,pth,6.00
2023-10-12T18:52:00,pth,7.20
2023-10-12T18:54:00,pth,14.40
2023-10-12T18:56:00,pth,14.40
2023-10-12T18:58:00,pth,13.20
2023-10-12T19:00:00,pth,14.40
2023-10-12T19:02:00,pth,13.20
2023-10-12T19:03:00,pth,7.20
2023-10-12T19:05:00,pth,14.40
2023-10-12T19:07:00,pth,14.40
2023-10-12T19:08:00,pth,6.00
2023-10-12T19:09:00,pth,7.20
2023-10-12T19:11:00,pth,13.20
2023-10-12T19:13:00,pth,14.40
2023-10-12T19:15:00,pth,14.40
2023-10-12T19:17:00,pth,13.20
2023-10-12T19:19:00,pth,14.40
2023-10-12T19:20:00,pth,8.40
2023-10-12T19:21:00,pth,7.20
2023-10-12T19:23:00,pth,14.40
2023-10-12T19:25:00,pth,13.20
2023-10-12T19:26:00,pth,7.20
2023-10-12T19:28:00,pth,13.20
2023-10-12T19:29:00,pth,7.20
2023-10-12T19:30:00,pth,7.20
2023-10-12T19:32:00,pth,13.20
2023-10-12T19:33:00,pth,7.20
2023-10-12T19:35:00,pth,13.20
2023-10-12T19:36:00,pth,7.20
2023-10-12T19:38:00,pth,13.20
2023-10-12T19:40:00,pth,14.40
2023-10-12T19:42:00,pth,13.20
2023-10-12T19:43:00,pth,7.20
2023-10-12T19:45:00,pth,15.60
2023-10-12T19:47:00,pth,14.40
2023-10-12T19:49:00,pth,3.60
2023-10-12T19:50:00,pth,1.20
2023-10-12T19:52:00,pth,3.60
2023-10-12T19:54:00,pth,3.60
2023-10-12T19:55:00,pth,2.40
2023-10-12T19:57:00,pth,2.40
2023-10-12T19:58:00,pth,2.40
2023-10-12T20:00:00,pth,3.60
2023-10-12T20:01:00,pth,1.20
2023-10-12T20:03:00,pth,3.60
2023-10-12T20:04:00,pth,1.20
2023-10-12T20:05:00,pth,2.40
2023-10-12T20:07:00,pth,3.60
2023-10-12T20:08:00,pth,1.20
2023-10-12T20:09:00,pth,1.20
2023-10-12T20:11:00,pth,3.60
2023-10-12T20:12:00,pth,1.20
2023-10-12T20:13:00,pth,1.20
2023-10-12T20:15:00,pth,2.40
2023-10-12T20:16:00,pth,1.20
2023-10-12T20:18:00,pth,3.60
2023-10-12T20:19:00,pth,1.20
2023-10-12T20:21:00,pth,3.60
2023-10-12T20:22:00,pth,1.20
2023-10-12T20:23:00,pth,1.20
2023-10-12T20:25:00,pth,3.60
2023-10-12T20:26:00,pth,1.20
2023-10-12T20:28:00,pth,2.40
2023-10-12T20:30:00,pth,3.60
2023-10-12T20:32:00,pth,2.40
2023-10-12T20:33:00,pth,2.40
2023-10-12T20:35:00,pth,3.60
2023-10-12T20:36:00,pth,1.20
2023-10-12T20:37:00,pth,2.40
2023-10-12T20:39:00,pth,2.40
2023-10-12T20:40:00,pth,2.40
2023-10-12T20:42:00,pth,2.40
2023-10-12T20:43:00,pth,2.40
2023-10-12T20:45:00,pth,2.40
2023-10-12T20:47:00,pth,3.60
2023-10-12T20:49:00,pth,3.60
2023-10-12T20:51:00,pth,3.60
2023-10-12T20:52:00,pth,1.20
2023-10-12T20:53:00,pth,1.20
2023-10-12T20:55:00,pth,3.60
2023-10-12T20:56:00,pth,2.40
2023-10-12T20:58:00,pth,2.40
2023-10-12T21:00:00,pth,3.60
2023-10-12T21:02:00,pth,2.40
2023-10-12T21:03:00,pth,1.20
2023-10-12T21:04:00,pth,1.20
